This is the latest recevied weather packets stored in our database for station/object NE1CU. If no packets are shown the sender has not sent any weather packets the latest 10 day(s).
| Time | Temp. | Humidity | Pressure | Rain* | Wind** | Luminosity | Snow |
|---|---|---|---|---|---|---|---|
| 1777058476 | 17.22° C | 32% | 1009.1 hPa | 0 mm | - | 727 W/m² | - |
| 1777058174 | 17.78° C | 34% | 1009.1 hPa | 0 mm | - | 739 W/m² | - |
| 1777057869 | 17.78° C | 35% | 1009.4 hPa | 0 mm | - | 751 W/m² | - |
| 1777057564 | 17.78° C | 33% | 1009.2 hPa | 0 mm | - | 764 W/m² | - |
| 1777057260 | 17.78° C | 34% | 1009.3 hPa | 0 mm | - | 776 W/m² | - |
| 1777056955 | 17.22° C | 34% | 1009.2 hPa | 0 mm | - | 789 W/m² | - |
| 1777056654 | 16.67° C | 34% | 1009.1 hPa | 0 mm | - | 803 W/m² | - |
| 1777056350 | 17.22° C | 35% | 1009.2 hPa | 0 mm | - | 815 W/m² | - |
| 1777056047 | 16.67° C | 37% | 1009.2 hPa | 0 mm | - | 826 W/m² | - |
| 1777055743 | 16.67° C | 34% | 1009.2 hPa | 0 mm | - | 837 W/m² | - |
| 1777055440 | 16.67° C | 36% | 1009.2 hPa | 0 mm | - | 847 W/m² | - |
| 1777055139 | 16.67° C | 36% | 1009.2 hPa | 0 mm | - | 855 W/m² | - |
| 1777054834 | 16.67° C | 36% | 1009.2 hPa | 0 mm | - | 861 W/m² | - |
| 1777054531 | 16.11° C | 40% | 1009.2 hPa | 0 mm | - | 869 W/m² | - |
| 1777054228 | 16.11° C | 38% | 1009.1 hPa | 0 mm | - | 878 W/m² | - |
| 1777053926 | 16.11° C | 37% | 1009.1 hPa | 0 mm | - | 884 W/m² | - |
| 1777053622 | 15.56° C | 41% | 1009.2 hPa | 0 mm | - | 892 W/m² | - |
| 1777053321 | 15.56° C | 43% | 1009.3 hPa | 0 mm | - | 899 W/m² | - |
| 1777053017 | 15.56° C | 42% | 1009.3 hPa | 0 mm | - | 908 W/m² | - |
| 1777052714 | 15.56° C | 41% | 1009.2 hPa | 0 mm | - | 915 W/m² | - |
| 1777052413 | 15.56° C | 41% | 1009.3 hPa | 0 mm | - | 919 W/m² | - |
| 1777052110 | 15.56° C | 42% | 1009.4 hPa | 0 mm | - | 924 W/m² | - |
* Rain latest hour (hover to see other rain measurements)
** Current wind speed in m/s (hover to see current wind gust speed)